This is the latest recevied weather packets stored in our database for station/object K4ZZR. If no packets are shown the sender has not sent any weather packets the latest 10 day(s).
| Time | Temp. | Humidity | Pressure | Rain* | Wind** | Luminosity | Snow |
|---|---|---|---|---|---|---|---|
| 1778099126 | 28.89° C | 64% | 1015.7 hPa | 0 mm | - | 636 W/m² | - |
| 1778098822 | 28.89° C | 65% | 1015.8 hPa | 0 mm | - | 645 W/m² | - |
| 1778098521 | 28.33° C | 66% | 1015.9 hPa | 0 mm | - | 676 W/m² | - |
| 1778098217 | 29.44° C | 65% | 1015.8 hPa | 0 mm | - | 671 W/m² | - |
| 1778097913 | 29.44° C | 64% | 1016 hPa | 0 mm | - | 703 W/m² | - |
| 1778097610 | 28.89° C | 64% | 1016 hPa | 0 mm | - | 743 W/m² | - |
| 1778097307 | 28.33° C | 65% | 1015.8 hPa | 0 mm | - | 716 W/m² | - |
| 1778097003 | 28.33° C | 66% | 1015.6 hPa | 0 mm | - | 707 W/m² | - |
| 1778096700 | 28.89° C | 65% | 1015.7 hPa | 0 mm | - | 761 W/m² | - |
| 1778096397 | 28.89° C | 67% | 1015.7 hPa | 0 mm | - | 766 W/m² | - |
| 1778096095 | 28.89° C | 65% | 1015.9 hPa | 0 mm | - | 772 W/m² | - |
| 1778095791 | 28.89° C | 63% | 1016 hPa | 0 mm | - | 790 W/m² | - |
| 1778095488 | 28.89° C | 65% | 1016 hPa | 0 mm | - | 805 W/m² | - |
| 1778095184 | 28.89° C | 66% | 1016.1 hPa | 0 mm | - | 785 W/m² | - |
| 1778094881 | 28.89° C | 64% | 1016.2 hPa | 0 mm | - | 802 W/m² | - |
| 1778094577 | 28.89° C | 65% | 1016.3 hPa | 0 mm | - | 827 W/m² | - |
| 1778094274 | 29.44° C | 57% | 1016.6 hPa | 0 mm | - | 776 W/m² | - |
| 1778093971 | 28.89° C | 58% | 1016.4 hPa | 0 mm | - | 830 W/m² | - |
| 1778093669 | 29.44° C | 52% | 1016.4 hPa | 0 mm | - | 842 W/m² | - |
| 1778093365 | 29.44° C | 54% | 1016.6 hPa | 0 mm | - | 853 W/m² | - |
| 1778093062 | 29.44° C | 57% | 1016.6 hPa | 0 mm | - | 849 W/m² | - |
| 1778092760 | 28.89° C | 54% | 1016.7 hPa | 0 mm | - | 873 W/m² | - |
| 1778092455 | 28.89° C | 61% | 1016.5 hPa | 0 mm | - | 832 W/m² | - |
| 1778092153 | 28.89° C | 61% | 1016.7 hPa | 0 mm | - | 815 W/m² | - |
| 1778091849 | 28.89° C | 60% | 1016.6 hPa | 0 mm | - | 853 W/m² | - |
* Rain latest hour (hover to see other rain measurements)
** Current wind speed in m/s (hover to see current wind gust speed)